Location: ???????
(55.7027°N, 37.3832°E)
Time: 11:11:28
(UTC+00:00)

Sich 1 Rocket - Pass Details

Date: 14 April 2026
Orbit: 610 x 646 km, 82.5° (Epoch: 10 May)

Event Time Altitude Azimuth Distance (km) Brightness Sun altitude
Exits shadow 22:02:16 48° 281° (W) 824 4.1 -24.3°
Maximum altitude 22:02:25 48° 288° (WNW) 821 4.1 -24.3°
Drops below altitude 10° 22:06:43 10° 3° (N) 1,995 7.2 -24.2°
Sets 22:09:01 0° 10° (N) 2,901 8.4 -24.1°
